User: anonymous   Login
Location: Unspecified
(0.0000°N, 0.0000°E)
Time: 00:53:38
(UTC+00:00)
Language:

STARLINK-11480 [DTC] - Orbit

View from above orbital plane
View from above orbital plane
View from above satellite
View from above satellite

Ground track
Ground track

The orbit is defined by the following mean orbital elements,

1 62830U          26145.51713003 +.00000000 +00000-0 +81652-3 0 00005
2 62830  43.0016 202.9014 0001381 253.8360 106.2356 15.70844844    01
Epoch (UTC): 25 May 2026 12:24:40
Eccentricity: 0.0001381
inclination: 43.0016°
perigee height: 356 km
apogee height: 357 km
right ascension of ascending node: 202.9014°
argument of perigee: 253.8360°
revolutions per day: 15.70844844
mean anomaly at epoch: 106.2356°

The dashed part of the orbit path shows where the satellite is in the earth's shadow,  

DLR